This is the latest recevied weather packets stored in our database for station/object KJ4RDP-13. If no packets are shown the sender has not sent any weather packets the latest 1 day(s).
| Time | Temp. | Humidity | Pressure | Rain* | Wind** | Luminosity | Snow |
|---|---|---|---|---|---|---|---|
| 1777986143 | 17.22° C | 68% | 1016 hPa | 0 mm | 0 m/s | 288 W/m² | - |
| 1777985839 | 16.67° C | 71% | 1016 hPa | 0 mm | 0 m/s | 260 W/m² | - |
| 1777985536 | 15.56° C | 73% | 1016 hPa | 0 mm | 0 m/s | 245 W/m² | - |
| 1777985233 | 14.44° C | 77% | 1016 hPa | 0 mm | 0 m/s | 229 W/m² | - |
| 1777984929 | 13.89° C | 83% | 1016.4 hPa | 0 mm | 0 m/s | 231 W/m² | - |
| 1777984625 | 12.78° C | 84% | 1016 hPa | 0 mm | 0 m/s | 210 W/m² | - |
| 1777984322 | 11.67° C | 86% | 1016 hPa | 0 mm | 0 m/s | 195 W/m² | - |
| 1777984019 | 11.11° C | 89% | 1016 hPa | 0 mm | 0 m/s | 170 W/m² | - |
| 1777983716 | 9.44° C | 95% | 1016.4 hPa | 0 mm | 0 m/s | 152 W/m² | - |
| 1777983413 | 8.89° C | 99% | 1016 hPa | 0 mm | 0 m/s | 96 W/m² | - |
| 1777983109 | 9.44° C | 99% | 1016 hPa | 0 mm | 0 m/s | 68 W/m² | - |
| 1777982805 | 7.78° C | 99% | 1015.7 hPa | 0 mm | 0 m/s | 58 W/m² | - |
| 1777982502 | 7.22° C | 99% | 1015.7 hPa | 0 mm | 0 m/s | 58 W/m² | - |
| 1777982195 | 7.78° C | 99% | 1015.7 hPa | 0 mm | 0 m/s | 54 W/m² | - |
| 1777981893 | 7.22° C | 99% | 1015.7 hPa | 0 mm | 0 m/s | 49 W/m² | - |
| 1777981590 | 6.11° C | 99% | 1016 hPa | 0 mm | 0 m/s | 46 W/m² | - |
| 1777981286 | 5.56° C | 99% | 1016 hPa | 0 mm | 0 m/s | 40 W/m² | - |
| 1777980983 | 5° C | 99% | 1015.7 hPa | 0 mm | 0 m/s | 32 W/m² | - |
| 1777980680 | 5.56° C | 99% | 1016 hPa | 0 mm | 0 m/s | 26 W/m² | - |
| 1777980376 | 5° C | 99% | 1015.7 hPa | 0 mm | 0 m/s | 23 W/m² | - |
| 1777980075 | 3.33° C | 99% | 1015.7 hPa | 0 mm | 0 m/s | 22 W/m² | - |
| 1777979774 | 2.78° C | 99% | 1015.7 hPa | 0 mm | 0 m/s | 19 W/m² | - |
| 1777979470 | 2.78° C | 99% | 1015.7 hPa | 0 mm | 0 m/s | 17 W/m² | - |
| 1777979166 | 2.78° C | 99% | 1015.2 hPa | 0 mm | 0 m/s | 16 W/m² | - |
| 1777978864 | 2.78° C | 99% | 1015.7 hPa | 0 mm | 0 m/s | 12 W/m² | - |
* Rain latest hour (hover to see other rain measurements)
** Current wind speed in m/s (hover to see current wind gust speed)